sat.trackr.live / text

‹ back to catalog

STARLINK-4599

NORAD 53631 · 2022-104AV

PAYLOAD ACTIVE UNKNOWN

§ Identity

Operator
Country
US
Launch date
2022-08-28
Launch site
AFETR
Launch vehicle
Mass (kg)
RCS (m²)

Purposes: comms

External: N2YO · Heavens-Above · Gunter

§ Orbital elements

Epoch: 2026-09-20T22:29:00.952512Z

Period
93.79 min
Inclination
53.1602°
Eccentricity
0.0001121
Mean motion
15.35401186 rev/d
Perigee alt
459.0 km
Apogee alt
460.5 km
Semi-major
6,837.9 km
B*
9.0032e-6
RAAN
65.5289°
Arg perigee
88.1927°
Mean anomaly
271.9204°
Rev number
22,539

§ Raw data

STARLINK-45991 53631U 22104AV  26263.93681658 -.00000066  00000+0  90032-5 0  99932 53631  53.1602  65.5289 0001121  88.1927 271.9204 15.35401186225392

JSON: /api/v1/satellites/53631 · /tle

For live sub-satellite position, see the globe view (requires WebGL).

§ Visibility from observer

Set your observer location to see the next 7 days of passes ≥ 10°. The values pass through the URL so the page stays shareable.

No JS? Fill the form by hand. The geolocation button needs JavaScript.